Current weather by "City, St" or "zip code"  
 

Current Conditions: Powell Municipal Airport, WY

Fair


52.0 F

Last Updated on Oct 21 2021, 11:55 am MDT
Humidity: 50%
Wind Speed: SE 10.4 mph
Barometer 30.19 in
Dewpoint: 33.8 F
Visibility: 10.00 mi
Precip: --
Heat Index: NA
Wind Chill: 48 F
Current conditions at:

Powell Municipal Airport, WY (KPOY)

Lat: 44.8672 Lon: 108.7934

Local Radar Image active severe weather and emergency alerts image image weather storm and storm spotter reports image weather observation monitoring service image
Local
Radar
Active
Alerts
Storm Reports Obs
Monitoring

Sign-up For Email & Text Message Weather Alert Notification Services



Advertise Here

Observation History for Powell Municipal Airport, WY


Time Wind
(mph)
Vis
(mi)
Weather Precip (in) Temperature (F) Relative
Humidity
Wind
Chill
(F)
Heat
Index
(F)
Pressure
Air Dwpt altimeter
(in)
sea level
(mb)
Rmks
11:55 am MDT SE 10.4 10.00 Fair -- 52.0 33.8 50% 48 NA 30.19 M
10:55 am MDT SE 11.5 10.00 Fair -- 46.0 33.8 62% 41 NA 30.20 M
9:55 am MDT SE 12.7 10.00 Mostly Cloudy -- 43.0 33.8 71% 36 NA 30.20 M
8:55 am MDT SE 9.2 10.00 Overcast -- 41.0 32.0 70% 35 NA 30.20 M
7:55 am MDT SE 6.9 10.00 Mostly Cloudy -- 39.0 32.0 75% 34 NA 30.19 M
6:55 am MDT E 6.9 10.00 Mostly Cloudy -- 41.0 32.0 70% 36 NA 30.18 M
5:55 am MDT SE 11.5 10.00 Overcast -- 41.0 33.8 76% 34 NA 30.18 M
5:35 am MDT SE 9.2 10.00 Partly Cloudy -- 39.0 33.8 81% 33 NA 30.18 M
4:55 am MDT SE 10.4 10.00 Fair -- 41.0 32.0 70% 35 NA 30.18 M
3:55 am MDT E 9.2 10.00 Fair -- 39.0 32.0 75% 33 NA 30.18 M
2:55 am MDT SE 6.9 10.00 Fair -- 41.0 32.0 70% 36 NA 30.17 M
2:35 am MDT SE 9.2 10.00 Fair -- 41.0 32.0 70% 35 NA 30.16 M
1:55 am MDT SE 13.8 10.00 Fair -- 37.0 33.8 87% 28 NA 30.16 M
1:35 am MDT SE 6.9 10.00 Fair -- 41.0 33.8 76% 36 NA 30.15 M
12:55 am MDT E 10.4 10.00 Fair -- 41.0 32.0 70% 35 NA 30.15 M
11:55 pm MDT N 0.0 10.00 Fair -- 43.0 32.0 66% NA NA 30.16 M
10:55 pm MDT SE 9.2 10.00 Fair -- 41.0 33.8 76% 35 NA 30.15 M
9:55 pm MDT SE 12.7 10.00 Fair -- 43.0 33.8 71% 36 NA 30.14 M
8:55 pm MDT SE 11.5 10.00 Partly Cloudy -- 45.0 33.8 66% 39 NA 30.13 M
7:55 pm MDT SE 13.8 10.00 Partly Cloudy -- 45.0 33.8 66% 39 NA 30.12 M
6:55 pm MDT SE 15.0 10.00 Fair -- 45.0 33.8 66% 38 NA 30.11 M
5:55 pm MDT SE 15.0 10.00 Fair -- 45.0 32.0 61% 38 NA 30.10 M
5:35 pm MDT SE 12.7 10.00 Fair -- 46.0 32.0 57% 40 NA 30.10 M
4:55 pm MDT SE 15.0 10.00 Fair -- 48.0 32.0 54% 42 NA 30.09 M

Regional Weather Observation


Cowley WY, WY (KU68)

Fair
54.0 F

Cody, WY (KCOD)

Fair
61.0 F

Laurel Municipal Airport, MT (K6S8)

NULL
63.0 F

Billings, Billings Logan International Airport, MT (KBIL)

Mostly Cloudy
59.0 F

South Big Horn County Airport, WY (KGEY)

Fair
55.0 F

Big Timber Airport, MT (K6S0)

A Few Clouds
59.0 F

Advertise Here


Advertise Here